Wind_Speed
29 28 28 28 27 28 28 28 26 25 24 24 24 23 22 21 20 19 19 18 18 17 17 16 15 15 15 15 14 13 12 12 13 14 14 14 14 13 12 12 12 12 11 10 11 12 12 13 13 13 13 11 9 8 8 7 6 6 4 4 4 4 3 3 2 3 6 5 4 4 3 3 5 5 3 3 4 6 7 6 5 6 8 9 8
28 28 28 28 27 28 29 29 27 26 26 26 25 24 23 23 22 20 20 20 19 18 17 16 16 15 14 14 14 14 13 13 14 15 15 14 14 13 13 12 11 10 9 9 9 8 7 5 5 6 4 7 8 8 8 7 7 7 6 6 5 4 4 3 2 2 3 6 5 3 3 4 5 4 4 4 5 8 8 6 9 11 8 6 8
28 27 27 28 29 28 28 29 28 27 27 27 27 26 24 24 23 22 21 20 19 19 18 17 17 16 15 15 15 14 14 14 14 16 16 14 14 13 13 13 10 9 10 7 4 4 5 4 6 8 5 6 9 7 7 7 7 7 7 6 5 3 2 2 1 3 3 4 4 3 5 5 4 3 3 4 6 8 7 7 11 12 8 5 8
22 26 27 28 28 28 27 28 29 28 29 29 28 28 26 25 24 23 22 20 19 19 19 18 17 17 16 16 15 14 15 15 15 16 15 14 14 14 13 13 12 11 11 9 6 8 10 9 7 7 7 7 7 8 8 6 6 7 6 4 4 3 2 2 2 1 3 3 3 4 5 4 4 4 2 4 7 8 6 8 11 11 7 6 8
21 22 25 27 27 28 28 28 29 30 30 29 29 29 28 27 26 24 23 22 20 19 19 19 19 18 18 17 16 16 15 15 16 16 15 15 15 14 13 12 12 13 13 12 11 11 11 10 8 9 10 11 11 10 9 8 7 7 6 4 3 3 3 3 2 2 1 2 2 4 2 2 3 3 1 5 9 8 7 8 11 12 11 10 10
27 26 25 26 27 29 29 29 29 31 31 30 30 30 29 28 27 26 25 23 21 20 20 20 20 19 19 18 18 17 16 16 17 17 17 17 16 14 12 11 12 13 14 13 11 10 11 10 8 9 12 12 11 10 8 8 9 8 7 6 5 4 4 4 3 2 1 2 1 2 2 3 3 2 3 5 8 8 9 11 12 14 13 13 12
28 29 27 27 28 29 30 30 30 31 31 32 31 30 29 28 27 27 26 24 22 21 21 21 21 21 19 19 19 19 18 19 19 18 18 18 17 15 14 11 10 12 14 14 12 11 12 13 12 11 12 12 11 11 10 9 9 9 8 7 6 5 4 3 2 1 1 2 1 3 3 3 4 2 3 4 6 9 13 13 12 12 12 14 15
25 26 28 28 29 30 31 31 31 31 31 31 31 30 29 29 28 27 26 25 24 23 22 22 22 21 21 20 20 20 20 19 18 19 19 18 17 16 14 12 12 14 14 14 14 14 15 16 16 15 13 12 11 11 11 10 9 9 10 8 7 6 5 4 2 2 1 1 2 4 3 2 5 4 4 4 6 9 11 10 10 11 9 12 15
26 27 30 31 30 30 30 31 31 31 31 30 30 30 29 29 28 27 26 26 25 24 23 22 22 22 21 20 19 20 21 21 19 20 20 18 17 16 15 14 14 15 15 16 16 17 17 16 17 16 16 15 13 11 12 11 9 9 11 11 10 9 7 5 3 2 2 2 4 5 5 5 5 6 6 5 6 7 7 6 9 10 8 11 12
26 27 31 33 32 28 26 27 27 28 30 30 29 30 29 28 28 27 26 25 24 24 23 23 23 23 21 20 20 20 21 22 21 21 22 21 19 16 15 16 15 14 17 19 18 18 17 16 16 17 17 16 14 13 13 11 9 10 11 11 11 10 8 6 5 4 4 4 6 6 8 7 4 7 5 4 5 6 5 5 10 10 9 11 10
24 24 24 23 26 28 27 25 24 23 26 29 30 29 29 28 28 27 26 25 24 24 24 23 23 23 22 21 20 20 20 20 20 20 20 22 22 19 17 16 16 16 18 19 19 18 17 15 15 17 18 17 15 16 15 12 10 11 11 11 12 11 9 8 7 6 5 5 6 7 8 5 6 6 3 5 7 6 5 4 7 9 10 10 9
16 13 12 13 9 16 26 27 26 23 24 27 29 29 27 27 26 26 26 26 25 24 24 23 22 22 21 20 20 20 18 18 20 20 19 20 21 21 19 17 17 17 18 18 18 18 17 14 12 15 19 19 17 17 17 14 12 12 11 11 12 12 11 10 8 8 7 6 7 7 7 2 5 5 4 7 8 6 4 3 6 8 10 10 10
9 12 17 13 12 8 11 16 23 26 25 27 27 27 27 26 26 26 25 26 26 25 24 23 22 21 20 20 22 22 20 19 21 21 21 21 21 21 20 18 17 17 17 18 17 16 15 13 12 15 19 20 19 19 18 17 15 15 14 14 14 13 12 11 9 9 8 6 6 5 5 3 6 6 6 7 5 4 4 3 5 5 7 10 12
8 15 22 20 12 8 8 13 21 25 27 28 27 27 27 26 26 26 25 26 27 26 25 25 23 21 20 21 22 21 20 22 23 22 22 23 22 21 20 18 16 17 17 17 16 14 14 14 15 16 18 20 21 20 19 18 17 17 17 17 16 15 14 13 12 11 11 8 5 3 3 1 3 4 5 4 2 3 3 2 3 5 8 10 13
7 12 17 20 17 14 15 21 26 26 26 28 27 27 28 27 27 26 25 27 27 27 27 26 25 23 22 22 22 21 21 22 23 23 23 23 22 22 21 19 16 15 17 18 17 15 15 16 17 16 16 18 20 19 17 16 15 15 17 18 18 16 15 15 15 14 13 12 8 5 4 3 4 5 5 4 4 4 4 2 2 7 11 12 14
6 11 14 17 17 16 21 27 28 27 27 29 29 29 28 28 28 27 27 27 27 26 26 26 26 25 24 24 23 22 23 23 22 22 23 23 23 23 24 23 19 15 15 17 17 17 17 18 17 16 15 16 18 18 16 16 15 14 15 16 16 15 13 14 15 16 15 14 12 11 9 7 6 6 6 6 5 5 4 3 3 7 10 11 13
8 12 12 12 14 15 19 23 22 22 25 27 27 29 30 29 28 27 28 28 26 25 25 26 27 27 25 24 24 23 24 24 22 22 24 25 24 23 24 24 22 19 16 15 16 17 17 18 18 17 16 16 18 18 16 16 15 13 14 14 14 14 13 12 13 14 15 14 14 14 13 11 10 10 9 9 8 7 7 5 3 5 8 9 10
11 14 13 10 13 17 18 19 17 17 21 23 20 18 23 28 29 27 27 28 26 26 26 26 26 27 25 24 25 25 25 26 24 23 24 25 24 24 24 23 22 21 18 16 17 18 18 19 19 18 17 17 18 17 16 17 17 15 15 15 14 14 13 13 13 13 14 14 15 16 15 13 12 12 12 12 11 10 9 7 5 3 6 8 9
14 15 15 13 13 19 22 22 21 18 18 20 19 19 19 21 28 28 26 27 26 25 25 24 23 23 24 25 26 25 24 25 27 26 25 26 25 25 25 22 20 20 19 17 18 19 19 19 20 20 19 19 19 18 17 19 19 17 15 15 15 14 14 14 15 15 15 15 16 17 17 17 16 15 15 15 14 13 11 10 8 5 5 7 8
17 16 15 15 14 15 19 23 26 24 21 23 27 24 21 21 23 29 28 26 25 24 23 23 23 23 23 23 25 25 23 24 26 27 26 26 26 26 25 23 21 20 20 18 17 18 19 19 20 21 21 20 20 19 18 20 21 19 15 14 15 15 14 15 16 16 16 16 16 17 18 18 18 18 18 18 16 15 14 12 11 10 9 8 7
21 20 18 16 16 16 15 19 25 27 26 28 31 28 22 23 23 25 29 27 25 26 26 25 24 24 24 24 25 25 24 24 24 25 25 26 26 26 26 24 22 20 19 19 18 16 18 20 20 20 22 22 21 20 19 20 22 21 17 15 15 14 14 15 16 16 16 17 17 18 18 18 19 20 20 20 20 19 18 17 15 14 13 12 10
23 25 23 19 17 17 15 18 22 25 26 26 26 25 25 24 24 21 26 29 26 26 29 27 25 23 24 24 25 26 26 26 25 24 24 26 27 27 26 24 21 19 18 19 19 17 16 19 20 20 20 22 22 21 20 20 21 21 19 17 16 15 14 15 16 17 17 18 18 19 18 18 19 19 19 19 19 19 19 20 19 19 17 14 12
24 28 29 24 18 17 18 20 23 26 26 26 24 22 24 26 23 21 19 24 27 26 26 25 24 23 23 24 25 25 25 27 27 25 24 25 26 27 27 24 21 20 17 15 16 18 17 16 17 17 19 21 22 22 21 20 20 21 20 19 18 16 15 15 16 17 19 18 18 20 20 20 20 20 20 20 19 19 19 19 20 20 19 15 11
23 25 30 27 19 17 18 20 23 25 24 24 26 26 25 28 28 21 21 17 17 21 24 25 23 21 21 22 23 24 24 26 27 26 24 24 25 26 27 26 24 21 16 11 11 15 17 17 16 17 19 19 20 22 22 21 21 21 21 21 20 18 17 17 16 17 19 20 20 21 22 22 21 22 22 23 23 23 21 21 21 20 18 15 13
22 23 27 27 21 18 17 17 20 22 24 27 31 31 29 29 30 25 18 17 13 9 10 17 21 22 21 21 22 22 22 24 26 26 24 24 24 24 26 27 27 22 15 11 11 12 13 15 16 16 19 20 20 22 23 22 21 21 21 21 21 20 20 19 17 17 19 21 21 21 21 21 21 21 21 21 23 26 24 22 22 20 17 15 15
23 24 26 27 23 20 17 17 19 21 24 30 33 32 31 29 27 24 19 14 13 13 13 13 11 12 16 19 20 20 20 20 23 25 24 24 24 24 23 26 29 26 17 11 11 11 10 12 13 15 18 20 21 22 22 21 21 21 21 22 22 22 21 21 20 20 20 20 21 21 21 21 21 21 20 18 17 20 23 23 22 20 18 17 15
24 23 24 27 26 22 19 20 23 22 22 24 25 24 26 27 25 23 21 21 20 17 14 12 12 12 13 14 16 18 18 18 20 23 24 25 26 26 24 25 29 31 24 15 11 11 11 11 11 14 17 18 18 19 18 17 18 19 21 22 23 23 23 22 22 22 22 21 21 21 21 21 21 21 21 19 15 15 18 22 23 21 18 16 14
26 23 23 25 27 25 20 22 27 27 25 24 23 22 23 25 26 26 27 29 27 23 20 17 12 12 19 18 12 16 18 18 20 23 24 25 27 27 27 26 28 31 29 21 14 13 13 13 13 15 17 17 17 16 15 15 16 18 20 22 23 24 24 22 21 21 21 21 20 20 20 20 21 19 19 21 20 17 17 20 22 20 17 15 15
28 25 24 24 25 26 23 23 27 29 28 26 24 22 21 21 22 23 25 26 26 24 22 19 15 15 19 18 14 18 20 20 21 24 24 24 26 27 27 28 28 29 29 23 16 14 14 15 15 16 16 16 16 15 15 15 16 18 19 21 22 23 23 22 21 21 21 20 20 20 20 20 21 20 19 20 20 18 17 20 21 20 18 17 17
28 25 24 24 24 25 24 21 23 27 29 29 24 20 17 16 15 17 19 20 20 20 20 18 15 15 17 17 17 20 22 23 23 23 22 20 21 22 23 26 27 26 25 23 18 15 15 16 15 16 17 16 16 16 17 17 18 18 19 19 20 20 21 22 22 20 20 20 21 21 20 19 19 19 20 21 19 17 17 19 20 20 20 20 18
26 25 24 25 26 27 25 23 21 22 26 30 28 23 18 14 12 13 15 16 15 16 15 15 15 14 13 15 14 14 17 21 21 22 22 19 17 17 19 22 23 22 22 23 22 18 16 16 15 16 17 17 18 19 19 20 21 20 19 19 20 20 19 20 19 18 18 20 21 20 20 19 18 17 18 20 20 19 19 20 21 21 21 21 20
23 25 26 26 26 28 27 27 26 24 23 24 26 24 21 17 13 11 12 13 12 13 12 12 12 12 11 12 13 12 14 17 19 21 23 20 17 17 17 19 21 20 20 22 23 20 17 17 16 16 17 17 18 18 19 19 19 18 18 19 20 21 21 20 18 17 17 17 18 19 20 20 19 18 19 19 20 21 21 20 20 21 22 23 22
25 26 28 26 24 24 24 23 24 26 24 21 21 21 20 19 16 14 14 13 11 11 11 10 11 11 10 11 11 12 14 16 18 21 21 19 17 18 18 18 19 20 20 21 21 19 16 14 13 10 7 7 8 9 9 10 11 10 11 12 13 16 18 18 18 18 18 17 16 16 17 16 15 15 16 18 21 22 22 21 21 20 20 22 23
26 27 26 21 16 17 19 18 16 18 21 21 23 22 19 20 22 21 19 17 15 14 13 13 12 12 12 11 11 11 13 15 16 17 18 19 19 19 19 18 18 19 19 18 15 12 10 8 8 5 2 5 9 12 14 16 14 10 9 11 12 11 11 12 13 16 17 17 16 16 16 15 12 11 12 15 19 22 23 24 23 21 19 20 22
23 25 24 20 15 13 16 16 12 11 13 15 18 20 20 20 22 21 18 16 15 16 16 16 15 14 14 13 13 13 14 15 16 17 19 20 21 20 20 19 18 19 18 14 11 9 6 5 5 5 3 3 5 9 16 20 17 13 12 12 10 8 8 9 10 12 14 15 16 17 17 16 13 12 11 12 15 18 21 23 24 23 21 20 21
19 20 20 20 19 18 19 17 14 15 16 14 14 17 21 22 21 20 20 20 19 18 17 17 17 16 16 16 16 16 17 17 18 18 19 20 19 17 17 17 17 18 19 15 12 10 8 5 2 2 3 4 6 9 13 13 9 7 8 7 4 5 6 7 7 8 9 10 12 14 16 15 15 14 14 13 14 16 18 20 22 23 23 21 20
13 15 17 17 17 18 20 21 20 20 21 21 21 22 22 21 21 21 22 22 22 20 18 17 18 17 17 17 16 17 18 17 17 17 17 18 17 14 13 13 12 12 13 12 10 9 8 6 4 4 5 6 6 7 7 6 5 5 5 5 5 5 5 5 6 7 7 6 8 10 12 13 14 15 16 16 17 18 19 19 20 21 25 26 24
14 13 16 20 23 22 21 22 25 24 23 23 24 24 23 22 22 22 21 21 21 21 20 18 16 16 15 15 16 16 16 16 15 14 14 14 13 12 12 12 11 8 7 8 8 7 7 7 7 8 9 9 8 7 6 5 5 6 6 6 6 5 6 7 7 8 8 8 8 9 10 12 14 15 14 15 18 19 20 21 21 21 22 25 26
23 23 23 25 26 26 25 24 25 26 25 24 23 22 21 21 21 22 22 21 20 18 17 17 16 16 15 16 16 16 15 14 13 13 13 12 10 9 11 12 11 9 7 7 7 8 8 9 11 12 12 10 8 5 2 3 4 5 6 6 6 6 7 7 7 7 7 7 7 8 8 9 10 11 12 13 16 17 17 19 20 21 20 21 24
24 29 31 30 28 27 27 25 23 23 24 23 23 22 21 20 21 21 21 20 18 16 15 15 15 16 17 17 17 16 15 13 11 10 12 12 10 10 12 13 11 9 10 10 10 11 10 9 8 7 5 3 1 0 1 2 4 5 5 6 6 6 7 7 7 7 7 7 7 8 7 7 8 8 9 11 13 14 15 15 15 15 16 17 20
20 25 30 32 29 27 27 25 23 22 21 20 21 22 21 21 20 18 17 17 16 15 15 15 14 15 16 16 16 14 13 12 10 9 10 11 11 10 10 9 5 2 2 3 4 5 4 2 2 3 3 2 2 2 2 3 3 3 3 4 5 5 6 6 7 7 7 7 8 8 8 8 9 9 9 10 11 12 15 16 17 17 18 18 18
20 22 24 25 25 24 25 24 22 21 20 19 19 19 18 18 18 17 18 19 19 18 17 17 16 15 13 12 13 12 9 7 7 8 9 9 9 8 7 4 3 6 7 7 7 6 4 3 4 6 6 6 6 4 3 3 4 5 5 6 7 7 7 7 7 8 8 8 9 9 9 9 9 9 10 11 11 12 14 16 17 19 21 21 22
20 21 21 21 21 22 22 22 21 20 19 19 20 19 17 17 19 20 21 22 21 20 20 18 16 15 13 10 10 8 5 5 8 10 11 9 8 8 9 8 9 10 9 8 7 7 6 5 6 7 7 8 9 8 7 6 6 6 6 6 7 8 7 7 8 9 9 9 9 10 10 10 10 11 11 11 11 12 13 15 16 18 18 19 20
22 22 22 21 22 23 22 22 22 21 20 20 19 18 16 16 17 17 20 21 20 19 19 18 17 15 13 10 8 6 4 3 7 9 9 7 7 9 11 11 11 10 10 8 8 7 6 5 5 6 7 7 7 7 7 6 6 6 6 7 8 8 7 6 7 8 8 9 9 10 10 11 11 12 13 13 13 13 14 15 17 18 18 19 19
22 23 23 23 23 23 22 21 22 22 21 19 17 16 16 16 15 14 17 21 20 17 17 17 17 15 12 11 10 7 3 6 9 8 7 9 11 12 13 13 13 11 11 11 10 8 7 7 6 7 7 6 6 5 5 5 5 6 6 7 6 6 6 6 7 7 8 8 8 9 9 10 10 11 13 14 15 16 16 16 16 17 18 19 19
21 23 24 23 22 21 20 20 19 18 17 17 18 18 19 19 17 17 18 20 22 20 18 17 16 14 13 12 11 8 7 10 11 9 9 12 14 14 14 14 13 11 10 11 10 8 6 6 6 5 5 5 5 4 4 5 6 5 5 4 3 4 6 7 8 9 9 9 10 11 12 13 13 13 14 15 15 16 17 18 19 20 20 20 20
20 21 21 20 19 18 18 17 16 14 14 18 20 22 22 21 19 18 17 16 15 15 15 15 15 15 14 12 9 9 13 15 13 11 11 12 13 13 12 11 10 10 10 10 8 7 6 6 6 5 5 4 4 4 5 6 6 5 4 4 5 7 8 9 10 11 12 13 13 13 14 14 15 16 16 17 18 19 19 20 21 22 23 23 23
18 19 20 20 18 16 15 14 13 11 13 17 21 20 17 16 16 14 11 10 11 10 10 14 19 20 17 14 13 15 17 15 13 12 13 12 11 9 8 8 10 11 11 9 7 6 6 6 5 5 5 5 4 5 6 6 5 4 4 5 7 9 10 11 12 14 15 15 16 16 16 17 17 17 18 19 21 23 24 24 24 24 24 24 25
13 15 17 18 16 14 14 13 12 11 13 17 20 18 15 14 15 15 13 11 13 14 15 17 20 19 17 15 13 13 13 11 10 11 12 12 10 9 7 8 9 9 8 7 6 5 5 5 4 4 4 3 3 6 7 6 5 5 6 8 10 11 13 14 15 16 17 18 19 20 20 21 21 21 21 22 23 24 25 26 27 27 26 26 26
12 11 11 12 12 11 11 11 10 9 11 15 16 16 15 15 15 13 12 14 17 17 16 16 16 15 15 14 14 15 17 16 13 12 13 13 13 12 10 9 7 6 5 6 6 5 5 5 5 5 5 4 4 6 7 7 6 7 8 11 13 14 16 17 18 19 20 20 21 23 24 24 24 25 25 25 24 24 24 25 26 27 27 26 26
14 12 12 12 11 9 9 13 17 17 14 13 12 11 14 18 19 16 16 18 17 14 14 14 14 14 14 13 13 14 16 16 15 15 15 14 12 11 10 8 6 5 6 6 6 5 6 6 5 6 6 6 6 6 5 6 8 9 10 12 14 15 17 19 20 21 22 22 23 24 25 26 26 26 26 26 25 24 25 25 25 26 27 27 27
Wind_Direction
194 193 193 194 194 194 194 194 194 196 198 199 200 203 205 208 209 213 215 217 218 220 225 226 221 220 221 220 221 222 220 216 217 218 215 216 217 216 215 215 215 217 216 217 219 221 225 225 224 224 219 213 207 203 205 203 204 213 208 212 223 199 198 259 287 126 125 124 123 116 109 117 115 92 30 4 353 348 10 22 350 348 347 326 321
195 195 194 195 197 196 195 195 195 196 197 199 201 203 206 208 209 212 214 215 216 217 221 222 219 219 220 220 221 222 223 219 218 218 215 214 216 214 214 213 214 216 217 224 231 235 245 261 290 297 261 230 224 204 198 204 208 213 213 214 223 204 197 234 330 21 122 124 117 102 106 108 88 56 19 17 6 358 10 4 344 358 5 338 326
195 195 195 195 198 198 196 196 196 197 197 199 201 202 205 208 209 212 214 215 216 218 220 219 217 216 218 221 222 222 223 220 218 220 216 213 214 214 217 215 212 217 219 220 237 261 269 299 329 331 324 289 281 259 216 207 211 220 225 224 218 204 188 183 35 356 25 92 98 77 93 93 53 47 72 40 9 356 359 355 353 359 5 352 335
208 197 196 196 197 197 197 198 197 198 199 199 201 203 205 207 209 211 213 214 215 217 219 219 218 217 219 222 221 220 226 225 224 225 218 214 215 214 218 218 215 224 228 224 225 235 235 230 230 237 232 232 253 262 247 225 216 225 236 238 224 213 192 163 154 10 11 34 66 76 87 89 54 56 77 27 13 8 7 4 357 355 2 11 357
240 216 202 197 197 198 199 200 199 199 200 200 202 203 204 207 209 211 212 212 213 217 218 218 219 219 219 221 220 222 228 227 227 227 220 215 215 212 215 223 229 234 235 230 229 232 236 233 224 226 229 218 211 229 251 245 229 229 239 242 239 233 200 176 175 182 271 325 81 81 73 127 93 60 64 26 21 23 19 9 2 4 13 14 360
237 230 213 201 201 200 200 201 202 202 202 202 203 203 204 207 209 210 212 212 212 215 216 217 218 219 219 221 222 223 225 224 224 225 220 219 220 219 220 231 238 237 235 234 234 236 239 237 232 229 230 225 214 221 245 250 238 231 232 231 227 224 199 186 188 186 279 328 53 29 304 196 158 104 87 34 27 42 34 16 8 10 10 358 347
236 232 217 205 203 203 202 203 203 204 204 204 204 205 205 207 209 210 211 212 212 213 214 216 217 217 218 220 221 222 224 226 226 224 226 229 228 227 227 228 232 234 239 244 244 245 241 234 232 228 227 228 221 219 234 250 246 233 226 226 222 215 197 188 210 218 271 321 333 313 292 197 184 161 86 40 47 52 31 16 6 3 4 353 348
242 238 225 212 206 204 203 204 205 205 206 206 205 205 205 206 208 210 210 210 212 212 212 214 216 216 218 218 219 221 222 224 223 222 228 232 230 229 227 220 224 234 241 243 241 242 241 236 234 230 229 231 225 222 233 242 240 228 221 218 211 204 193 185 221 252 217 236 264 283 294 216 192 172 114 68 58 42 24 16 353 341 355 358 352
232 233 229 217 209 208 205 203 205 206 206 206 205 204 204 205 206 206 208 209 211 212 212 212 213 213 215 216 217 218 219 219 219 217 218 219 221 226 222 212 217 227 230 230 231 233 234 235 235 232 229 227 225 230 234 231 231 228 223 220 212 207 206 201 228 250 220 244 254 246 254 250 203 143 109 76 54 45 40 21 341 329 354 2 348
226 228 228 218 209 209 207 204 205 206 206 205 204 204 202 203 204 205 207 209 209 211 212 211 211 210 212 215 215 216 219 222 224 223 218 214 213 215 214 215 220 219 218 223 228 231 232 232 232 230 226 223 224 230 229 226 232 232 226 224 219 218 216 208 220 231 224 255 259 242 251 249 168 117 108 95 77 78 74 13 333 330 355 359 341
232 231 237 231 216 208 207 206 206 210 213 207 202 204 203 201 203 204 205 207 207 209 210 209 209 210 211 212 212 214 218 220 221 223 222 217 212 209 208 213 217 213 212 220 227 232 234 233 232 229 222 217 219 224 223 222 231 233 228 226 225 223 216 206 217 224 220 251 261 257 265 248 133 112 115 120 109 101 84 14 341 346 359 353 335
246 248 278 316 295 222 210 205 201 210 226 220 205 201 203 201 202 202 201 203 205 205 206 206 207 207 206 206 209 211 213 214 215 218 221 219 215 211 206 205 211 216 220 224 227 231 230 224 229 232 225 218 217 222 222 222 227 234 234 230 226 225 222 217 222 221 215 241 257 264 288 316 108 113 132 130 120 109 89 30 12 7 353 334 321
256 258 264 296 328 290 234 215 204 205 223 230 213 200 199 197 197 198 198 200 201 201 202 203 204 203 201 204 210 213 214 217 217 218 221 222 221 217 209 207 213 218 222 225 227 233 232 220 220 231 227 222 222 225 226 225 227 231 235 232 228 228 228 226 223 214 206 214 234 259 304 13 95 118 136 139 127 103 97 55 19 348 315 305 304
250 250 244 242 251 265 264 250 231 213 215 226 217 201 195 194 194 197 198 199 199 199 200 201 202 202 201 205 211 214 218 223 222 219 219 222 224 220 210 208 216 218 221 226 228 235 235 220 215 222 225 224 225 225 226 226 227 230 231 230 229 229 230 227 221 215 209 204 204 237 291 344 130 146 153 146 113 108 134 102 1 311 299 303 305
257 248 237 231 227 220 217 230 238 229 222 227 221 204 195 194 194 195 196 197 198 199 201 202 202 204 205 205 207 208 212 219 220 217 216 216 218 218 211 207 210 214 217 219 219 223 222 214 214 219 221 223 225 224 221 220 224 229 227 225 225 227 230 228 222 221 222 220 215 221 245 232 173 162 167 167 149 146 169 193 298 292 294 297 299
262 256 240 230 222 215 213 220 232 237 235 233 224 209 199 195 193 193 194 195 196 198 202 204 203 204 205 205 206 208 211 215 217 214 212 211 213 215 214 211 208 206 210 212 213 217 217 215 217 219 217 219 222 222 218 211 213 219 219 219 218 216 221 226 226 227 229 226 221 224 233 230 205 191 201 213 204 196 218 246 268 294 308 308 305
259 268 259 230 212 216 226 231 238 248 253 248 231 213 203 195 190 189 191 193 194 195 201 206 205 203 204 203 202 205 209 212 213 212 210 210 212 214 212 212 211 210 211 214 215 216 216 216 218 219 219 221 225 226 220 208 206 210 209 209 208 203 205 214 220 226 228 224 221 224 228 228 224 222 223 227 230 229 234 243 260 319 334 325 320
263 271 276 249 207 203 222 242 250 256 264 267 259 237 215 197 190 190 189 190 194 196 199 203 204 203 203 203 202 204 207 210 211 211 211 210 212 212 207 205 208 210 212 216 218 216 215 214 214 215 218 221 226 228 219 208 206 211 207 201 198 197 199 203 208 214 219 220 220 222 225 227 228 228 227 231 237 236 232 233 240 291 316 308 315
270 271 282 275 228 197 202 225 237 240 248 255 257 261 252 218 195 189 189 190 192 197 199 199 202 204 204 204 206 207 209 212 210 209 210 211 210 208 203 201 205 208 208 211 215 218 218 217 217 217 218 222 227 226 217 208 209 214 209 198 195 197 201 206 211 214 217 220 222 223 227 230 231 233 233 235 238 235 231 230 229 230 262 288 305
279 275 279 277 259 226 210 219 230 234 237 233 226 233 254 250 212 189 187 192 193 194 198 198 199 204 205 206 207 206 206 211 213 212 212 211 208 205 201 200 204 206 205 205 208 213 215 218 224 225 222 225 228 224 216 210 210 213 211 201 201 204 205 208 215 219 221 225 228 229 230 231 234 237 239 240 241 236 232 233 232 228 232 245 268
289 285 277 266 261 252 228 219 229 235 234 227 217 211 226 250 240 202 187 190 193 192 194 196 197 200 201 202 203 204 206 210 212 213 213 211 209 207 203 202 204 205 204 205 208 212 214 218 226 229 224 224 224 219 212 208 208 211 211 209 210 211 208 209 215 220 225 228 229 230 231 233 235 238 241 244 244 240 235 237 237 234 233 231 233
290 290 283 266 254 249 228 209 217 225 223 220 216 209 210 232 252 237 200 189 192 194 194 195 196 194 195 198 200 202 207 212 214 214 213 211 211 211 208 206 206 205 203 206 209 212 216 220 227 232 228 223 222 218 211 206 205 208 210 212 214 214 212 211 214 218 221 223 222 221 224 229 232 234 236 239 243 244 240 237 237 237 237 233 227
283 287 286 273 252 241 232 221 220 223 219 213 216 223 218 217 237 259 237 203 193 194 195 195 195 192 190 193 199 203 206 212 216 215 212 210 211 214 213 208 207 210 209 204 204 208 213 218 224 229 228 224 221 221 217 211 208 209 211 213 215 215 211 205 205 211 214 216 216 217 218 221 223 223 223 226 233 238 236 233 234 233 229 225 222
275 278 282 277 255 232 230 230 230 229 222 211 216 230 227 207 208 240 270 255 216 197 194 192 192 193 192 190 195 200 202 208 214 216 214 212 211 214 215 210 208 212 211 196 194 203 211 216 218 221 225 223 220 222 223 219 214 213 214 217 219 218 213 207 204 206 206 208 215 219 217 218 221 221 222 227 232 235 234 233 231 228 224 223 221
269 267 275 274 255 234 227 216 211 217 219 213 213 218 216 202 197 211 248 279 288 273 232 206 195 193 193 191 192 196 197 202 211 214 214 215 216 217 217 215 212 212 210 199 197 198 203 211 213 216 221 221 217 218 223 222 219 218 219 222 224 224 221 217 213 210 208 210 218 223 222 224 229 231 233 237 234 229 227 226 223 224 227 225 221
266 260 266 269 255 235 224 210 197 198 209 213 212 210 206 201 195 197 210 237 265 283 288 278 250 218 201 193 192 194 190 192 204 211 212 215 219 218 217 217 216 215 213 209 206 200 197 204 206 204 208 210 209 212 218 220 221 223 224 226 228 228 227 223 219 219 221 222 226 231 232 233 236 237 241 245 233 219 216 214 211 213 217 216 221
269 252 253 263 256 234 217 213 209 202 201 207 211 210 203 195 187 184 191 204 216 224 237 261 281 282 258 226 198 187 182 180 194 208 212 214 218 217 215 216 217 217 215 209 197 188 183 186 187 184 187 193 198 205 212 216 220 225 228 229 230 230 229 226 222 224 228 229 233 237 237 238 239 237 238 240 231 213 204 199 196 200 207 216 231
276 256 244 251 252 239 217 202 203 205 204 201 199 200 197 190 183 180 184 191 198 201 205 211 218 240 255 252 215 179 176 179 191 206 213 215 215 214 213 213 215 216 214 206 188 176 172 170 171 173 178 186 193 200 210 218 225 230 232 232 231 230 229 226 225 228 231 233 237 240 238 239 241 235 229 230 230 224 212 202 199 201 207 217 229
279 265 248 244 245 242 228 201 190 195 201 197 189 187 191 191 188 186 187 191 195 197 201 205 205 215 232 236 214 192 191 194 200 210 218 219 216 216 216 215 215 216 211 199 184 177 175 171 172 178 184 191 197 205 215 222 228 234 236 235 234 231 229 226 225 228 231 233 237 239 239 239 240 234 226 223 223 224 220 210 205 204 205 211 222
278 266 251 242 239 240 237 216 191 187 193 194 188 183 185 189 188 186 186 188 192 196 198 198 201 205 206 200 194 199 207 210 211 214 219 220 218 222 224 220 215 213 206 190 179 179 182 181 186 193 196 199 205 210 212 214 216 221 226 228 227 227 226 225 225 227 232 235 238 241 242 242 240 234 226 219 216 220 224 218 213 212 211 211 219
281 271 257 245 235 233 234 227 209 192 189 191 188 182 176 175 178 180 179 177 180 186 190 190 191 194 191 186 184 190 203 211 214 213 214 216 218 224 227 218 210 207 201 192 187 190 193 192 194 198 201 203 207 209 210 211 210 210 212 214 215 217 218 218 218 223 229 233 237 240 242 246 246 238 228 222 220 223 227 228 226 226 222 217 217
281 278 272 260 244 232 226 223 217 206 193 185 183 177 164 153 148 152 165 175 180 183 187 192 191 189 190 194 193 184 185 197 206 208 210 215 219 221 220 211 203 201 198 192 190 195 200 198 198 203 206 208 211 212 213 211 207 205 208 210 210 213 214 213 215 220 225 230 234 236 238 241 243 241 234 231 228 222 220 225 230 227 222 217 215
271 272 273 270 260 244 234 230 223 213 199 181 173 171 161 149 139 128 128 140 154 165 172 177 179 178 180 187 194 191 189 194 200 204 208 212 213 212 207 202 199 196 190 186 190 199 206 201 197 203 216 236 257 268 258 240 230 225 223 224 223 220 216 217 221 223 225 228 232 238 240 239 239 240 235 231 230 225 220 224 233 234 227 218 213
268 266 261 256 254 247 241 244 241 223 204 183 173 175 171 160 151 138 126 123 125 127 133 141 150 161 169 173 180 184 187 190 194 199 200 198 198 196 188 181 179 178 176 177 184 194 202 198 191 197 258 294 302 305 290 270 263 257 246 248 253 246 233 229 228 226 226 228 230 237 244 245 243 245 238 229 229 228 223 224 232 239 239 230 218
262 259 246 231 225 227 228 231 227 204 185 171 170 173 167 155 149 142 135 131 124 114 115 122 131 141 150 154 158 163 169 175 179 182 184 184 183 180 172 163 159 163 170 178 184 188 202 218 211 210 236 255 267 270 261 252 245 238 238 245 251 252 254 255 249 242 241 240 236 234 239 241 240 242 243 234 228 227 225 227 232 238 242 239 223
247 240 227 216 211 206 199 198 193 179 167 157 155 157 151 145 141 136 130 127 122 115 112 115 119 126 134 140 144 148 153 159 165 169 171 172 171 167 160 157 159 167 175 184 188 185 186 193 198 218 252 252 250 253 253 252 252 254 261 272 279 273 274 276 274 270 264 255 244 237 236 237 236 237 242 244 240 237 236 237 240 241 244 245 232
214 203 190 179 174 169 166 166 169 169 161 151 144 141 138 135 132 128 124 123 123 121 118 115 112 114 120 125 131 139 146 151 156 159 158 157 153 144 136 139 149 161 172 182 188 187 185 186 196 231 253 262 272 276 277 292 314 316 313 319 314 297 289 286 287 293 290 275 261 252 244 240 237 237 239 240 242 244 247 248 249 249 248 247 244
165 162 154 139 131 129 131 136 142 141 135 129 129 130 129 128 126 123 122 122 123 124 124 124 121 120 122 126 131 135 138 140 142 143 141 139 137 134 133 139 147 160 177 190 196 200 200 198 204 220 234 243 254 265 276 297 311 309 312 313 304 296 298 295 293 297 295 286 281 275 261 249 244 244 244 244 245 247 248 248 249 250 250 250 249
136 125 119 115 114 114 112 111 116 119 117 115 118 120 120 120 120 121 122 122 123 127 130 129 130 136 141 142 141 140 139 139 141 144 144 142 144 152 155 154 158 174 195 206 206 205 207 207 209 214 220 221 222 230 267 327 329 322 321 318 308 297 296 295 292 290 288 285 288 290 277 260 252 249 249 253 256 258 258 258 255 253 252 251 249
116 116 113 106 101 101 102 99 98 103 106 108 110 111 114 117 120 124 126 124 124 129 129 124 131 146 154 153 150 150 151 152 152 155 160 163 165 170 171 170 178 199 213 216 211 206 208 217 222 217 211 208 205 26 352 305 301 304 308 309 304 297 295 294 291 287 284 281 286 292 291 281 276 271 261 258 259 260 264 270 269 263 259 255 252
91 100 108 109 106 102 97 94 95 98 98 100 106 112 118 122 124 125 128 128 126 126 124 122 131 145 153 153 152 152 154 155 156 160 169 172 168 165 169 175 182 187 172 166 170 178 190 224 298 341 1 354 326 286 236 234 257 275 287 300 308 307 303 301 300 302 304 299 293 294 292 287 289 295 293 284 278 275 276 280 281 281 279 277 272
94 91 96 104 109 108 105 106 111 110 104 102 108 117 125 129 126 124 128 132 130 125 122 125 135 144 148 151 154 154 152 158 167 168 167 169 170 166 163 150 74 62 66 66 62 62 66 59 28 15 21 30 26 23 32 26 7 1 356 348 340 336 332 326 325 324 321 312 303 299 296 296 299 303 305 301 296 292 291 291 290 288 287 284 280
102 99 98 100 100 100 104 110 114 113 108 106 108 114 121 124 121 119 123 129 131 128 127 129 135 141 146 153 163 171 183 202 199 187 176 172 171 157 133 108 87 79 77 74 67 61 60 56 33 21 28 35 31 30 36 28 9 359 355 341 328 323 322 320 320 320 316 312 311 309 308 308 307 303 301 301 296 291 289 290 289 289 289 286 281
91 92 92 92 91 92 96 99 101 104 107 106 103 103 107 113 115 115 120 126 127 126 129 134 138 144 152 162 178 201 215 175 163 167 162 149 135 121 108 102 97 88 82 88 95 88 79 72 49 31 31 32 27 29 32 21 2 351 345 335 330 331 334 329 325 327 328 329 328 326 321 317 312 307 304 303 299 294 291 287 285 284 284 282 278
84 84 83 85 89 93 94 93 94 98 103 104 104 103 105 111 112 108 116 129 135 132 130 134 138 141 145 153 167 188 179 115 115 119 109 101 100 96 93 97 98 90 81 85 90 84 73 70 64 51 43 35 26 19 9 358 351 343 334 327 326 331 333 328 325 327 328 326 324 325 326 324 320 317 315 311 306 301 294 288 286 286 286 284 280
84 83 84 87 92 97 99 97 97 98 100 104 105 98 90 90 88 82 93 120 140 147 146 144 142 139 140 148 162 169 141 115 111 101 82 77 79 81 86 91 91 85 80 79 76 66 57 57 57 52 44 36 27 15 356 351 353 345 330 322 318 313 313 316 316 313 312 310 311 315 319 318 315 314 313 313 312 308 301 294 290 286 284 283 282
95 92 90 91 94 98 101 102 101 100 100 101 98 88 79 79 79 73 75 95 121 141 150 143 131 125 126 131 128 106 93 94 96 91 83 80 79 80 84 87 85 85 86 82 75 69 65 59 57 55 47 29 14 6 358 357 358 349 329 318 313 306 305 310 311 308 307 308 309 310 311 310 308 306 303 301 302 302 300 298 295 291 287 284 280
110 108 107 109 111 113 114 111 108 108 108 104 99 96 97 101 103 104 103 100 99 105 110 99 90 86 85 82 77 77 79 82 82 80 81 85 88 88 83 74 72 77 81 79 76 77 68 54 49 51 45 31 24 24 14 359 349 342 331 320 313 309 309 310 309 307 308 310 311 311 311 309 307 304 300 297 295 294 291 290 289 288 288 287 283
121 123 126 131 134 137 140 142 147 156 150 130 120 127 143 144 137 142 149 128 94 80 75 73 76 81 82 78 73 75 79 84 85 81 78 81 88 95 90 74 68 74 77 71 65 65 57 44 40 44 38 27 37 41 24 357 336 330 323 316 314 313 311 308 306 306 308 309 308 308 308 307 306 304 301 297 295 293 290 287 284 281 282 283 283
95 98 110 122 131 144 151 144 134 140 146 141 139 146 145 125 110 109 109 94 83 78 73 68 69 78 84 81 73 67 66 69 72 72 73 77 81 84 83 75 68 68 63 50 43 48 50 40 33 31 19 0 12 28 12 346 336 333 321 315 314 312 309 308 308 308 308 308 306 306 305 305 303 302 299 296 294 291 288 286 283 280 278 277 277
81 74 73 75 79 87 93 83 73 68 71 78 85 94 99 95 88 82 79 80 79 78 74 70 69 72 77 78 75 69 67 68 66 62 61 64 66 67 68 64 56 50 45 41 44 56 55 42 35 34 24 18 29 31 1 336 339 337 323 315 315 311 308 309 309 308 307 306 305 303 302 301 300 299 297 294 291 289 287 287 286 283 279 276 274
Height
734 736 737 738 740 741 744 746 749 751 753 756 758 759 761 762 763 764 765 766 767 767 769 770 771 773 775 777 779 781 783 784 785 787 788 790 791 793 794 796 797 798 800 801 802 803 803 804 805 805 805 806 807 808 809 810 810 811 811 812 812 812 813 813 813 813 814 814 815 816 816 817 817 817 817 817 817 817 816 816 816 815 814 813 812
732 734 735 736 738 739 741 743 746 748 750 753 755 757 759 760 761 763 763 764 765 766 767 768 770 772 774 776 777 779 780 781 783 784 786 788 789 791 793 794 796 797 798 800 801 801 802 803 805 807 807 808 808 807 808 809 809 810 810 811 811 812 812 813 813 813 813 814 815 815 816 816 816 817 817 817 817 816 816 816 815 815 814 813 812
732 733 733 734 735 737 739 741 743 745 747 749 752 754 756 757 759 760 761 762 763 765 766 767 769 771 772 774 775 777 778 779 780 782 783 786 787 789 791 792 794 796 797 798 799 800 800 802 804 806 808 811 811 808 806 807 808 808 809 809 810 811 811 812 812 813 813 813 814 815 815 816 816 816 816 816 816 816 816 816 815 814 814 814 813
735 733 732 733 734 735 737 738 740 742 744 746 748 750 753 755 756 758 759 760 761 763 764 766 768 769 771 772 773 775 776 777 779 780 782 783 785 787 789 790 792 794 795 796 796 796 796 796 798 800 800 803 805 806 806 806 806 807 807 808 809 810 811 811 811 812 812 812 813 813 814 814 815 815 815 815 816 815 815 816 815 815 814 814 813
740 736 733 732 732 733 734 736 737 739 740 742 744 747 749 751 753 755 756 758 759 761 762 764 766 768 769 770 772 773 774 776 777 778 780 782 783 786 787 789 791 791 792 792 793 794 794 794 796 797 796 796 799 802 804 805 805 805 806 807 808 809 809 809 809 810 810 811 812 812 813 813 814 814 814 814 815 815 815 815 815 814 814 814 813
737 736 733 731 730 730 731 733 734 735 737 739 741 743 746 748 750 752 753 755 757 759 761 762 764 766 767 769 770 772 773 774 775 776 778 780 782 784 786 788 789 789 789 790 791 792 792 793 794 795 795 796 798 800 802 803 804 804 805 805 806 807 807 807 808 809 809 810 811 811 811 812 812 813 813 813 814 814 815 815 815 814 814 813 813
732 732 729 727 727 727 727 729 731 733 734 736 738 740 742 745 747 749 751 753 755 757 758 760 762 764 766 767 768 770 771 772 773 775 777 778 781 783 784 786 787 787 787 788 788 788 789 791 793 793 794 795 797 799 800 802 803 803 803 804 804 805 806 806 807 808 809 809 810 810 810 810 811 811 812 813 813 813 814 815 815 815 814 813 812
729 730 727 724 722 721 723 725 728 730 732 734 736 737 739 742 744 746 748 750 752 754 756 758 760 762 764 765 766 768 769 771 772 774 775 777 779 781 783 784 785 784 784 785 786 786 787 789 791 792 793 794 796 797 799 800 801 802 802 802 803 804 805 805 806 807 808 808 809 809 809 809 809 810 811 812 812 813 813 815 815 814 814 813 812
723 725 723 720 718 718 719 722 724 728 730 732 734 735 737 739 741 743 745 747 749 751 753 756 757 759 761 762 764 766 768 769 771 772 774 775 777 779 781 782 782 782 783 784 785 786 786 787 789 790 791 793 794 796 798 799 799 800 801 801 802 803 803 804 805 806 807 807 808 808 808 808 808 809 810 811 811 812 813 814 814 814 813 812 812
716 718 718 714 714 716 718 720 722 725 728 730 731 733 734 736 738 740 742 744 746 749 751 753 754 756 758 760 762 764 766 768 769 771 773 775 776 778 779 780 781 781 782 784 785 785 785 786 787 789 790 791 793 795 796 797 798 799 800 801 802 802 802 803 804 805 806 807 807 807 807 807 807 808 809 809 810 811 812 813 813 813 813 812 811
711 715 717 714 712 714 715 717 720 724 727 729 729 731 732 734 735 737 739 741 743 745 748 750 751 753 755 757 760 762 764 766 768 770 772 774 775 777 778 779 780 781 782 783 783 783 784 785 786 787 788 789 791 793 795 796 797 798 799 800 801 801 801 802 803 804 805 806 806 806 806 806 806 807 808 808 809 810 811 812 813 813 813 812 811
708 713 718 719 718 717 716 716 718 723 728 730 728 728 730 731 733 735 736 738 740 742 744 746 748 750 752 755 757 758 761 763 766 768 770 771 773 775 776 778 779 780 780 780 781 782 782 784 785 785 786 787 790 791 793 795 795 796 797 799 799 800 800 801 802 803 804 805 805 806 806 806 805 805 807 807 808 810 811 812 813 813 812 812 811
707 710 715 719 721 722 724 723 721 722 727 730 728 726 727 728 730 732 733 735 737 738 741 743 745 747 750 752 753 755 757 760 762 765 767 769 771 772 774 776 777 777 778 778 779 780 781 782 783 783 784 786 788 790 791 793 794 794 796 797 798 798 798 799 800 802 803 804 804 805 805 805 805 805 806 807 808 809 810 811 812 812 812 811 810
706 707 710 713 716 720 726 728 726 722 723 726 726 725 724 725 727 729 731 732 734 735 737 739 742 744 747 749 751 752 754 756 759 762 764 766 768 770 772 774 775 776 776 776 777 778 778 780 781 783 784 785 787 788 789 791 791 792 794 795 796 796 797 798 799 800 802 803 804 804 805 805 805 805 806 807 808 808 809 810 811 811 811 810 809
705 706 708 711 712 715 718 722 723 722 722 723 724 722 721 722 724 726 728 730 731 733 735 736 738 741 743 746 748 749 751 753 756 758 760 763 765 767 769 772 773 775 775 776 776 777 777 779 780 782 783 784 785 787 788 789 790 790 792 793 794 794 795 796 797 799 800 802 803 803 804 804 804 804 805 806 807 808 809 810 810 810 810 809 808
704 705 707 710 712 713 712 713 717 720 722 721 720 719 719 720 721 723 725 727 729 731 733 734 736 738 740 742 744 746 748 750 753 755 758 760 763 765 767 769 771 773 774 774 775 776 777 778 779 781 782 782 784 785 786 788 788 789 790 791 792 793 793 794 796 797 799 800 802 802 803 804 804 804 805 805 806 807 808 809 809 809 809 808 807
703 703 705 708 712 713 712 712 715 719 721 720 718 716 716 717 718 720 722 724 727 729 731 733 734 735 737 738 740 743 745 747 750 752 755 758 760 762 764 766 768 770 771 772 774 774 775 776 777 779 780 781 782 783 785 786 787 788 789 790 791 792 792 793 794 796 797 799 800 801 801 803 804 804 804 805 806 807 807 808 808 808 808 808 807
703 701 702 705 709 711 713 713 714 715 718 720 720 718 717 716 715 717 719 721 724 727 729 731 732 733 734 735 737 740 742 744 746 749 751 754 757 759 761 763 765 767 768 770 771 772 773 775 776 777 778 779 780 781 783 784 785 786 788 789 790 790 791 792 793 794 796 797 798 799 800 801 802 803 803 804 804 805 806 807 807 808 808 808 807
704 701 700 701 704 708 712 714 713 712 713 717 722 723 722 719 715 715 717 719 722 725 727 728 730 731 732 733 735 738 740 741 743 746 748 750 753 755 758 760 762 763 765 766 768 769 771 772 773 775 776 777 778 779 780 782 783 785 786 787 787 789 790 791 791 793 794 795 796 797 798 799 800 801 802 802 803 804 805 805 806 806 807 807 807
704 701 698 698 700 703 707 710 711 710 710 713 717 721 723 721 717 713 713 716 718 721 723 725 726 728 730 732 734 736 738 739 741 743 745 748 750 752 755 757 758 760 762 763 765 766 768 770 771 772 773 774 775 776 777 779 781 782 783 784 785 787 788 789 790 791 793 793 794 796 797 798 799 799 800 800 801 802 803 804 805 805 805 806 806
704 702 699 697 698 700 702 705 707 709 711 711 712 714 717 720 719 713 710 712 714 716 719 721 723 725 727 729 731 733 735 736 738 741 743 745 748 750 752 754 755 757 759 760 762 763 765 766 767 769 770 771 773 774 775 776 778 780 781 781 783 784 786 787 788 790 791 792 793 794 795 796 797 797 798 799 799 800 801 802 802 803 803 804 804
705 702 699 697 697 699 701 703 704 707 710 710 709 709 710 714 718 716 711 709 711 713 715 717 720 722 724 726 728 730 732 733 735 737 740 742 745 747 749 751 753 755 756 757 759 760 761 762 764 766 768 769 771 772 772 773 775 777 778 779 781 782 784 785 787 788 789 790 791 792 792 793 794 795 796 796 796 797 798 799 799 800 801 801 802
703 701 698 696 696 696 698 700 702 703 704 704 706 708 707 708 713 717 715 710 709 711 713 716 718 720 721 723 725 727 729 730 732 734 737 739 742 744 747 749 752 753 754 755 756 757 758 759 762 764 766 767 768 770 771 772 774 775 777 777 779 780 782 784 785 786 787 788 789 790 790 791 791 792 793 793 793 794 794 795 796 797 798 799 799
701 699 697 695 693 693 695 696 698 699 699 699 703 707 706 704 707 714 717 715 712 711 711 713 716 717 718 720 721 724 726 728 729 731 733 736 738 741 744 747 749 750 752 753 753 754 756 758 760 762 763 765 767 769 770 772 773 775 776 776 778 779 780 782 783 784 785 786 787 787 788 788 789 789 790 790 790 791 791 792 793 795 796 797 797
697 696 695 693 691 691 691 692 694 696 698 700 702 704 704 701 701 706 713 716 716 715 715 715 715 715 716 717 718 721 723 725 727 729 731 734 736 738 741 744 747 749 750 751 752 753 754 756 758 760 762 763 765 767 769 771 772 774 775 775 776 777 778 780 781 782 783 783 784 785 785 786 787 787 788 788 788 788 789 790 791 793 794 795 796
693 693 692 691 689 688 688 689 690 694 698 701 700 699 698 698 698 700 705 711 715 717 718 718 716 716 716 716 717 719 721 722 724 726 729 731 733 735 738 742 744 747 748 750 751 752 753 755 756 758 760 762 764 766 767 769 771 772 773 774 774 775 776 777 779 779 780 781 781 782 783 784 784 785 786 786 786 786 787 788 789 791 793 793 793
689 689 689 688 687 686 684 684 686 689 693 696 697 696 696 696 695 696 700 707 713 715 716 716 717 719 720 719 717 717 718 720 721 723 726 727 729 732 735 738 741 744 746 748 750 751 752 754 755 757 759 762 764 765 767 768 770 770 771 772 773 773 774 775 776 777 777 778 779 780 781 782 782 783 784 784 784 784 784 785 787 789 790 791 791
685 685 685 685 684 683 681 680 681 683 686 689 692 694 695 694 692 693 697 702 707 709 710 711 713 717 722 723 720 717 717 717 718 719 721 723 726 728 731 734 737 740 743 747 749 750 752 753 755 757 759 761 763 764 766 767 768 769 770 770 771 771 772 773 774 775 776 777 777 778 779 779 780 780 781 781 782 782 783 783 784 786 787 788 789
682 681 681 680 680 681 680 677 677 679 682 684 686 688 690 691 691 692 695 697 699 701 704 705 707 711 718 724 723 718 715 715 715 717 719 721 723 726 728 731 734 737 741 745 748 750 751 753 755 757 758 760 761 762 764 765 766 767 767 768 768 769 770 771 772 772 773 775 775 775 776 777 777 777 777 778 779 780 781 781 782 783 784 785 786
679 677 677 677 676 677 678 677 675 676 678 680 681 683 686 688 690 691 693 694 695 697 698 699 701 705 712 717 718 715 713 713 714 716 718 720 723 725 727 730 732 735 740 744 747 749 750 752 753 755 756 758 759 759 761 762 762 763 764 765 766 767 767 768 769 770 771 772 773 773 774 774 774 774 774 775 776 778 779 780 780 781 782 782 783
677 674 673 673 672 673 674 675 675 675 675 676 678 680 683 687 689 690 691 692 693 694 696 697 698 701 705 709 711 711 712 713 714 716 718 720 722 724 726 729 731 734 738 742 745 747 749 750 752 753 754 755 756 757 758 758 759 760 761 762 763 764 765 766 766 768 769 770 770 771 771 772 772 772 772 773 774 775 777 778 778 778 779 779 780
674 672 671 670 669 669 670 671 672 673 674 675 677 679 682 685 687 689 691 691 692 693 694 695 697 698 701 704 707 709 711 712 714 716 717 719 721 723 726 727 729 733 736 740 743 745 746 748 750 751 752 754 754 755 756 755 756 757 758 759 760 761 762 763 764 765 767 767 768 768 769 769 770 770 770 771 771 772 774 775 775 776 776 777 778
670 669 667 667 667 667 666 667 668 669 670 672 675 678 680 682 685 688 690 690 691 692 694 695 696 697 700 703 706 708 710 712 714 716 717 719 721 724 726 727 729 732 736 739 742 744 745 746 747 749 751 752 753 754 755 755 755 755 756 757 758 759 760 761 762 763 764 765 766 766 766 767 768 768 768 769 769 770 771 772 773 774 774 774 775
665 664 662 663 664 665 665 666 667 666 667 669 672 675 678 680 682 685 688 690 691 693 694 696 697 697 699 702 705 707 709 711 713 715 717 719 722 724 726 727 730 733 736 739 741 742 743 744 745 747 749 749 751 754 757 757 756 755 755 756 756 757 758 759 760 761 762 762 763 764 764 765 765 766 766 767 767 768 769 769 770 771 772 772 772
661 660 659 658 659 661 662 664 665 665 665 667 670 673 676 679 681 684 686 688 691 693 694 696 697 698 700 702 704 706 708 711 713 715 717 719 722 724 725 727 730 732 735 738 739 740 742 743 744 745 747 748 750 754 758 758 756 754 754 755 755 756 756 757 758 759 760 760 761 761 762 763 763 764 765 765 766 766 766 767 768 768 769 770 770
656 656 655 655 655 655 657 660 663 664 664 666 669 673 675 677 680 683 685 687 690 693 695 697 698 699 701 703 705 707 709 711 714 716 718 720 722 724 726 728 729 731 734 737 739 740 742 743 743 744 746 748 749 752 754 754 753 752 753 753 753 754 755 756 757 757 758 759 759 759 760 761 761 761 763 763 764 765 765 765 765 765 766 767 768
654 653 652 652 652 652 653 656 659 662 662 663 667 671 674 677 679 681 684 687 690 692 696 698 700 701 703 705 707 709 710 713 715 717 719 720 722 724 726 728 731 732 734 736 738 739 740 741 742 744 746 747 748 749 750 751 751 751 751 752 752 753 754 755 755 756 756 757 758 758 758 759 759 760 761 761 762 762 762 763 763 762 763 764 765
651 651 651 650 650 651 653 655 657 659 661 663 666 670 674 677 679 681 684 688 690 693 696 699 701 702 705 707 709 711 712 714 716 718 720 722 724 725 726 728 731 733 734 736 737 738 739 740 741 743 745 746 747 748 748 749 749 750 751 751 752 752 753 754 754 755 755 756 756 756 757 757 758 759 759 760 760 760 760 760 761 760 760 761 762
650 650 651 651 651 652 655 658 659 660 662 666 669 672 675 678 680 683 686 688 691 695 697 699 702 704 706 709 711 712 714 717 718 720 722 724 724 725 726 728 730 732 733 734 736 737 738 739 740 742 743 745 745 746 747 748 749 749 750 750 751 751 752 753 753 754 754 754 755 755 756 756 757 757 758 758 759 759 759 759 759 759 758 758 759
650 650 651 653 656 657 658 660 662 663 665 669 672 674 677 679 682 684 687 690 693 696 698 701 703 705 707 709 710 712 715 717 720 721 723 723 724 725 726 727 729 730 731 732 734 735 737 739 740 741 742 743 744 745 746 747 748 749 749 750 750 751 751 751 752 752 753 753 754 754 755 755 755 755 755 756 756 757 757 757 757 757 757 756 756
652 652 653 656 660 660 661 663 666 667 669 672 674 677 680 682 684 686 690 693 697 699 701 703 705 707 708 710 711 713 716 718 720 722 723 724 724 725 726 727 728 729 730 731 733 735 737 738 740 741 742 743 744 745 746 747 748 748 749 749 750 750 750 751 751 752 752 752 753 753 753 753 753 754 754 754 754 755 755 755 755 755 754 754 754
657 657 658 660 663 663 663 667 670 672 673 675 677 681 684 685 687 690 693 696 699 702 704 705 707 709 710 712 714 715 717 719 721 722 723 724 725 726 727 728 729 729 731 732 734 735 737 739 740 742 742 743 744 745 745 746 747 747 748 749 749 750 750 750 751 751 751 752 752 752 752 752 752 752 752 752 752 752 753 753 753 752 752 751 751
660 662 663 665 665 665 667 670 673 675 676 678 680 683 686 688 691 693 696 698 700 703 705 707 709 711 712 714 715 717 718 720 721 722 724 725 726 727 728 729 730 731 733 734 736 737 739 740 741 742 742 743 744 745 746 746 747 748 748 749 749 750 750 750 751 751 751 751 751 751 751 751 751 751 751 750 750 750 750 750 750 750 750 749 749
663 665 667 668 668 669 670 672 675 677 679 681 683 685 688 690 692 695 697 700 702 705 707 709 710 712 713 715 716 718 719 720 721 723 725 726 727 728 729 730 731 733 735 736 738 739 740 741 742 743 743 744 744 745 746 747 747 748 748 749 749 750 750 750 750 750 750 750 749 749 749 749 749 749 749 749 749 749 748 748 748 748 748 748 747
667 668 670 671 672 673 674 675 677 679 681 684 686 689 691 693 695 697 699 702 704 707 709 710 711 713 714 716 717 719 720 721 723 724 726 727 729 730 730 731 733 735 736 737 738 740 741 742 743 744 744 745 745 746 747 747 748 749 749 749 749 749 749 749 749 748 748 748 748 748 748 748 748 748 747 747 747 747 746 746 746 746 746 746 745
672 672 674 675 676 677 678 679 681 683 685 687 689 692 694 695 696 698 700 703 706 708 710 711 712 713 715 717 719 721 722 723 724 726 728 729 731 732 733 734 735 736 737 739 740 741 742 743 744 744 745 746 747 747 748 748 749 749 748 748 748 748 748 748 748 747 747 747 747 747 747 746 746 746 746 746 746 745 745 745 745 745 744 744 744
677 678 679 680 681 681 682 684 685 686 688 691 693 695 696 698 699 700 702 705 707 709 711 712 713 715 717 720 722 723 724 725 727 728 730 732 733 734 735 736 737 738 739 740 742 743 743 744 744 745 746 747 747 748 748 748 748 747 746 747 747 747 747 747 747 746 747 746 746 746 746 745 745 745 745 744 744 744 743 743 743 743 743 742 742
681 682 684 685 686 687 688 689 690 691 693 695 697 699 701 702 703 705 706 708 709 710 712 713 715 717 720 722 723 723 725 727 729 731 732 733 735 736 737 738 739 740 740 741 742 743 744 744 745 745 746 746 747 747 748 747 746 746 745 746 746 746 746 746 746 745 745 745 744 744 744 744 744 743 743 743 742 742 741 741 740 740 740 740 739
685 686 687 688 689 690 692 693 695 696 697 699 700 702 703 704 705 707 708 709 710 712 713 714 716 718 721 723 725 726 727 729 730 733 734 736 737 738 740 741 741 741 742 742 743 744 744 745 745 745 745 745 746 746 746 746 745 745 745 745 745 745 745 745 744 743 743 743 743 742 742 741 741 741 740 740 739 739 738 738 737 737 737 737 736
689 689 690 692 693 693 694 696 697 698 698 700 701 702 703 705 706 707 709 710 711 713 715 717 719 721 722 724 726 728 729 730 733 735 736 738 739 740 741 742 742 743 743 744 745 745 745 745 745 745 745 745 746 746 746 745 744 745 745 744 744 744 743 743 742 742 741 741 740 740 739 738 738 737 737 737 736 736 735 734 734 734 733 733 733
691 692 693 694 695 695 696 697 699 699 700 701 702 702 704 705 707 709 710 712 714 716 718 719 721 723 724 726 728 729 730 733 735 737 738 739 741 742 743 743 743 744 745 746 745 745 745 745 745 745 745 745 746 747 745 744 744 744 744 744 743 742 742 741 740 740 739 739 738 738 737 736 735 734 734 733 733 732 731 731 731 730 730 730 729